Location: Lugano
(46.0000°N, 8.9670°E)
Time: 15:51:16
(UTC+02:00)

Envisat - Pass Details

Date: 18 March 2026
Orbit: 761 x 762 km, 98.4° (Epoch: 19 April)

Event Time Altitude Azimuth Distance (km) Brightness Sun altitude
Rises 05:09:01 0° 354° (N) 3,236 6.4 -15.0°
Maximum altitude 05:14:22 10° 307° (NW) 2,302 5.1 -14.1°
Drops below altitude 10° 05:14:25 10° 306° (NW) 2,302 5.1 -14.1°
Enters shadow 05:14:49 10° 302° (WNW) 2,309 5.1 -14.0°
